When you browse on this site, cookies collect data to enhance your experience and personalize the content and advertising you see.
Visit our Privacy Policy to learn more. By continuing to use the site, you agree to this use of cookies and data.

Hourly Weather Weining

Today, 9 July, Thursday

Time Temperature Precipitation Wind Pressure Humidity
00:00 +19°C° 0.9 mm 1 mps 583 mmHg 96%
01:00 +19°C° 0 mm 1 mps 583 mmHg 97%
02:00 +19°C° 0.3 mm 1 mps 582 mmHg 97%
03:00 +19°C° 0.3 mm 1 mps 582 mmHg 97%
04:00 +19°C° 0.3 mm 1 mps 582 mmHg 97%
05:00 +19°C° 0.1 mm 1 mps 582 mmHg 96%
06:00 +19°C° 0.1 mm 1 mps 582 mmHg 95%
07:00 +20°C° 0.1 mm 1 mps 582 mmHg 93%
08:00 +21°C° 0.7 mm 1 mps 583 mmHg 90%
09:00 +22°C° 0.7 mm 1 mps 583 mmHg 86%
10:00 +23°C° 0.7 mm 1 mps 584 mmHg 83%
11:00 +23°C° 2.7 mm 1 mps 583 mmHg 81%
12:00 +24°C° 2.7 mm 1 mps 583 mmHg 80%
13:00 +24°C° 2.7 mm 1 mps 582 mmHg 79%
14:00 +24°C° 3.4 mm 1 mps 582 mmHg 80%
15:00 +24°C° 3.4 mm 1 mps 582 mmHg 82%
16:00 +23°C° 3.4 mm 2 mps 581 mmHg 84%
17:00 +21°C° 3.9 mm 2 mps 581 mmHg 88%
18:00 +20°C° 3.9 mm 2 mps 581 mmHg 91%
19:00 +19°C° 3.9 mm 2 mps 580 mmHg 95%
20:00 +19°C° 4.6 mm 2 mps 581 mmHg 96%
21:00 +18°C° 4.6 mm 2 mps 581 mmHg 97%
22:00 +18°C° 4.6 mm 2 mps 582 mmHg 97%
23:00 +19°C° 1.4 mm 1 mps 581 mmHg 98%

Tomorrow, 10 July, Friday

Time Temperature Precipitation Wind Pressure Humidity
00:00 +19°C° 1.4 mm 1 mps 581 mmHg 98%
01:00 +19°C° 1.4 mm 1 mps 581 mmHg 98%
02:00 +19°C° 1.6 mm 1 mps 580 mmHg 98%
03:00 +17°C° 1.6 mm 0 mps 580 mmHg 98%
04:00 +17°C° 1.6 mm 0 mps 580 mmHg 98%
05:00 +17°C° 0.9 mm 0 mps 580 mmHg 98%
06:00 +17°C° 0.9 mm 0 mps 581 mmHg 97%
07:00 +19°C° 0.9 mm 1 mps 581 mmHg 97%
08:00 +20°C° 0.9 mm 1 mps 581 mmHg 95%
09:00 +20°C° 0.9 mm 1 mps 581 mmHg 93%
10:00 +21°C° 0.9 mm 1 mps 582 mmHg 92%
11:00 +21°C° 1.5 mm 1 mps 582 mmHg 89%
12:00 +22°C° 1.5 mm 1 mps 582 mmHg 87%
13:00 +23°C° 1.5 mm 1 mps 582 mmHg 84%
14:00 +23°C° 1.4 mm 1 mps 581 mmHg 84%
15:00 +23°C° 1.4 mm 1 mps 581 mmHg 84%
16:00 +21°C° 1.4 mm 0 mps 580 mmHg 84%
17:00 +22°C° 1.1 mm 1 mps 580 mmHg 87%
18:00 +21°C° 1.1 mm 1 mps 580 mmHg 90%
19:00 +20°C° 1.1 mm 1 mps 580 mmHg 93%
20:00 +20°C° 0.8 mm 1 mps 580 mmHg 94%
21:00 +19°C° 0.8 mm 1 mps 580 mmHg 95%
22:00 +19°C° 0.8 mm 1 mps 580 mmHg 96%
23:00 +19°C° 0 mm 1 mps 580 mmHg 96%

Day after tomorrow, 11 July, Saturday

Time Temperature Precipitation Wind Pressure Humidity
00:00 +17°C° 0 mm 0 mps 580 mmHg 97%
01:00 +17°C° 0 mm 0 mps 579 mmHg 97%
02:00 +17°C° 0 mm 0 mps 579 mmHg 97%
03:00 +19°C° 0 mm 1 mps 579 mmHg 97%
04:00 +18°C° 0 mm 1 mps 579 mmHg 97%
05:00 +19°C° 0 mm 1 mps 579 mmHg 96%
06:00 +18°C° 0 mm 2 mps 579 mmHg 95%
07:00 +18°C° 0 mm 2 mps 579 mmHg 94%
08:00 +19°C° 0 mm 2 mps 580 mmHg 90%
09:00 +20°C° 0 mm 3 mps 580 mmHg 86%
10:00 +21°C° 0 mm 3 mps 581 mmHg 82%
11:00 +22°C° 0.1 mm 3 mps 581 mmHg 78%
12:00 +23°C° 0.1 mm 4 mps 581 mmHg 75%
13:00 +25°C° 0.1 mm 4 mps 581 mmHg 72%
14:00 +25°C° 0.5 mm 4 mps 581 mmHg 72%
15:00 +25°C° 0.5 mm 4 mps 580 mmHg 72%
16:00 +25°C° 0.5 mm 3 mps 580 mmHg 72%
17:00 +24°C° 0.7 mm 2 mps 580 mmHg 77%
18:00 +23°C° 0.7 mm 2 mps 580 mmHg 82%
19:00 +21°C° 0.7 mm 1 mps 580 mmHg 86%
20:00 +21°C° 1 mm 1 mps 580 mmHg 88%
21:00 +20°C° 1 mm 1 mps 580 mmHg 90%
22:00 +18°C° 1 mm 0 mps 581 mmHg 92%
23:00 +18°C° 1.6 mm 0 mps 581 mmHg 94%

12 July, Sunday

Time Temperature Precipitation Wind Pressure Humidity
00:00 +17°C° 1.6 mm 0 mps 580 mmHg 95%
01:00 +17°C° 1.6 mm 0 mps 580 mmHg 97%
02:00 +19°C° 6.1 mm 1 mps 580 mmHg 97%
03:00 +19°C° 6.1 mm 1 mps 580 mmHg 98%
04:00 +19°C° 6.1 mm 1 mps 580 mmHg 98%
05:00 +19°C° 7.4 mm 1 mps 581 mmHg 98%
06:00 +19°C° 7.4 mm 1 mps 581 mmHg 98%
07:00 +17°C° 7.4 mm 0 mps 581 mmHg 98%
08:00 +19°C° 0.8 mm 1 mps 582 mmHg 96%
09:00 +19°C° 0.8 mm 1 mps 582 mmHg 95%
10:00 +20°C° 0.8 mm 1 mps 583 mmHg 94%
11:00 +20°C° 2.4 mm 1 mps 583 mmHg 94%
12:00 +19°C° 2.4 mm 1 mps 582 mmHg 95%
13:00 +19°C° 2.4 mm 1 mps 582 mmHg 95%
14:00 +19°C° 2.1 mm 1 mps 582 mmHg 95%
15:00 +19°C° 2.1 mm 1 mps 582 mmHg 95%
16:00 +19°C° 2.1 mm 1 mps 582 mmHg 95%
17:00 +19°C° 0.8 mm 1 mps 582 mmHg 95%
18:00 +19°C° 0.8 mm 1 mps 582 mmHg 96%
19:00 +16°C° 0.8 mm 0 mps 582 mmHg 97%
20:00 +16°C° 0.8 mm 0 mps 583 mmHg 97%
21:00 +16°C° 0.8 mm 0 mps 583 mmHg 97%
22:00 +16°C° 0.8 mm 0 mps 583 mmHg 97%
23:00 +16°C° 0.4 mm 0 mps 583 mmHg 97%

13 July, Monday

Time Temperature Precipitation Wind Pressure Humidity
00:00 +16°C° 0.4 mm 0 mps 583 mmHg 97%
01:00 +16°C° 0.4 mm 0 mps 582 mmHg 97%
02:00 +16°C° 0.1 mm 0 mps 582 mmHg 97%
03:00 +16°C° 0.1 mm 0 mps 582 mmHg 97%
04:00 +16°C° 0.1 mm 0 mps 582 mmHg 96%
05:00 +16°C° 0.1 mm 0 mps 582 mmHg 96%
06:00 +16°C° 0.1 mm 0 mps 582 mmHg 95%
07:00 +16°C° 0.1 mm 0 mps 583 mmHg 95%
08:00 +17°C° 0.1 mm 0 mps 583 mmHg 93%
09:00 +19°C° 0.1 mm 1 mps 583 mmHg 92%
10:00 +20°C° 0.1 mm 1 mps 584 mmHg 90%
11:00 +21°C° 0.5 mm 1 mps 584 mmHg 87%
12:00 +22°C° 0.5 mm 1 mps 584 mmHg 83%
13:00 +23°C° 0.5 mm 1 mps 584 mmHg 80%
14:00 +23°C° 1.2 mm 1 mps 584 mmHg 80%
15:00 +23°C° 1.2 mm 2 mps 583 mmHg 81%
16:00 +23°C° 1.2 mm 2 mps 583 mmHg 81%
17:00 +21°C° 1.1 mm 2 mps 583 mmHg 85%
18:00 +21°C° 1.1 mm 1 mps 582 mmHg 89%
19:00 +20°C° 1.1 mm 1 mps 582 mmHg 94%
20:00 +20°C° 0.5 mm 1 mps 583 mmHg 94%
21:00 +20°C° 0.5 mm 1 mps 583 mmHg 95%
22:00 +19°C° 0.5 mm 1 mps 583 mmHg 96%
23:00 +19°C° 0.6 mm 1 mps 583 mmHg 96%

14 July, Tuesday

Time Temperature Precipitation Wind Pressure Humidity
00:00 +19°C° 0.6 mm 1 mps 583 mmHg 97%
01:00 +19°C° 0.6 mm 1 mps 582 mmHg 97%
02:00 +19°C° 0.6 mm 1 mps 582 mmHg 98%
03:00 +19°C° 0.6 mm 1 mps 582 mmHg 98%
04:00 +19°C° 0.6 mm 1 mps 582 mmHg 98%
05:00 +19°C° 1.5 mm 1 mps 582 mmHg 98%
06:00 +19°C° 1.5 mm 1 mps 583 mmHg 98%
07:00 +19°C° 1.5 mm 1 mps 583 mmHg 98%
08:00 +20°C° 0.6 mm 1 mps 583 mmHg 94%
09:00 +20°C° 0.6 mm 1 mps 584 mmHg 91%
10:00 +21°C° 0.6 mm 1 mps 584 mmHg 88%
11:00 +22°C° 1 mm 1 mps 584 mmHg 87%
12:00 +22°C° 1 mm 1 mps 584 mmHg 87%
13:00 +22°C° 1 mm 1 mps 583 mmHg 86%
14:00 +22°C° 1.5 mm 1 mps 583 mmHg 87%
15:00 +22°C° 1.5 mm 1 mps 583 mmHg 87%
16:00 +22°C° 1.5 mm 1 mps 582 mmHg 88%
17:00 +21°C° 1.6 mm 1 mps 582 mmHg 90%
18:00 +20°C° 1.6 mm 1 mps 582 mmHg 93%
19:00 +20°C° 1.6 mm 1 mps 582 mmHg 95%
20:00 +20°C° 0.8 mm 1 mps 582 mmHg 96%
21:00 +19°C° 0.8 mm 1 mps 583 mmHg 97%
22:00 +19°C° 0.8 mm 1 mps 583 mmHg 97%
23:00 +19°C° 0.7 mm 1 mps 583 mmHg 97%
Show more